Location: Blackwall
(51.5097°N, 0.0016°W)
Time: 00:05:45
(UTC+00:00)

Cosmos 2237 Rocket - Pass Details

Date: 15 May 2026
Orbit: 834 x 849 km, 71.0° (Epoch: 9 June)

Event Time Altitude Azimuth Distance (km) Brightness Sun altitude
Rises 22:34:53 0° 331° (NNW) 3,422 7.0 -17.2°
Reaches altitude 10° 22:37:29 10° 338° (NNW) 2,481 6.0 -17.4°
Maximum altitude 22:42:53 42° 49° (NE) 1,187 3.1 -17.6°
Enters shadow 22:47:00 17° 114° (ESE) 2,037 3.8 -17.8°
